This demonstration page uses our WeatherBlox Daily Observations layout. Learn more.

Left ArrowRight Arrow

39.51506, -84.39828

Hourly Observations for April 10, 2017

Temp ( °F °C ) Dew Point ( °F °C ) Humidity (%) Winds ( mph kmh ) Pressure ( in mb ) Visibility ( mi km ) Precip ( " mm )
12:15 am 00:15 Clear 69 20.8 23 -5.1 17 17 S 10 17 29.91 1013 10 16 0.00 0.00
12:35 am 00:35 Clear 69 20.8 23 -4.9 17 17 S 10 17 29.91 1013 10 16 0.00 0.00
12:55 am 00:55 Clear 69 20.8 23 -5 17 17 S 12 19 29.91 1013 10 16 0.00 0.00
1:15 am 01:15 Clear 69 20.8 24 -4.4 18 18 S 12 19 29.91 1013 10 16 0.00 0.00
1:35 am 01:35 Clear 69 20.8 24 -4.2 18 18 S 12 19 29.91 1013 10 16 0.00 0.00
1:55 am 01:55 Clear 69 20.8 25 -3.7 19 19 S 13 20 29.91 1013 10 16 0.00 0.00
2:20 am 02:20 Clear 67 19.7 24 -4.3 19 19 S 12 19 29.91 1013 10 16 0.00 0.00
2:35 am 02:35 Clear 67 19.5 25 -3.9 20 20 S 10 17 29.94 1014 10 16 0.00 0.00
2:55 am 02:55 Clear 64 18 26 -3.4 23 23 S 9 15 29.94 1014 10 16 0.00 0.00
3:15 am 03:15 Clear 64 18 27 -2.6 25 25 S 9 15 29.94 1014 10 16 0.00 0.00
3:35 am 03:35 Clear 64 18 26 -3.4 23 23 S 12 19 29.94 1014 10 16 0.00 0.00
3:55 am 03:55 Clear 64 18 26 -3.6 23 23 S 9 15 29.94 1014 10 16 0.00 0.00
4:15 am 04:15 Clear 64 18 26 -3.5 23 23 S 9 15 29.94 1014 10 16 0.00 0.00
4:35 am 04:35 Clear 64 17.8 27 -2.6 25 25 S 9 15 29.94 1014 10 16 0.00 0.00
4:55 am 04:55 Clear 64 17.7 28 -2.5 25 25 S 8 13 29.94 1014 10 16 0.00 0.00
5:15 am 05:15 Clear 63 17.1 28 -2.3 27 27 S 9 15 29.94 1014 10 16 0.00 0.00
5:35 am 05:35 Clear 63 17.4 28 -2.4 26 26 S 9 15 29.94 1014 10 16 0.00 0.00
5:55 am 05:55 Clear 63 17.2 28 -2 27 27 S 8 13 29.97 1015 10 16 0.00 0.00
6:15 am 06:15 Clear 62 16.8 29 -1.8 28 28 S 8 13 29.97 1015 10 16 0.00 0.00
6:35 am 06:35 Clear 62 16.7 29 -1.6 29 29 S 8 13 29.97 1015 10 16 0.00 0.00
6:55 am 06:55 Clear 62 16.6 30 -1.1 30 30 S 7 11 29.97 1015 10 16 0.00 0.00
7:15 am 07:15 Sunny 61 16 31 -0.3 33 33 S 7 11 30.00 1016 10 16 0.00 0.00
7:35 am 07:35 Sunny 61 15.9 32 0 34 34 SSW 8 13 30.00 1016 10 16 0.00 0.00
7:55 am 07:55 Sunny 61 16 33 0.3 35 35 S 6 9 30.00 1016 10 16 0.00 0.00
8:15 am 08:15 Sunny 62 16.6 32 0.1 33 33 S 8 13 30.00 1016 10 16 0.00 0.00
8:35 am 08:35 Sunny 64 18 33 0.4 31 31 S 10 17 30.00 1016 10 16 0.00 0.00
8:55 am 08:55 Sunny 66 18.7 34 1.2 31 31 S 14 22 30.03 1017 10 16 0.00 0.00
9:15 am 09:15 Sunny 69 20.8 37 2.6 30 30 S 13 20 30.03 1017 10 16 0.00 0.00
9:35 am 09:35 Sunny 69 20.8 36 2.1 29 29 S 13 20 30.03 1017 10 16 0.00 0.00
9:55 am 09:55 Sunny 70 20.9 36 2.2 29 29 SSW 14 22 30.03 1017 10 16 0.00 0.00
10:15 am 10:15 Sunny 73 22.8 39 3.9 29 29 SSW 18 30 30.03 1017 10 16 0.00 0.00
10:35 am 10:35 Sunny 74 23.3 40 4.6 30 30 SSW 22 35 30.03 1017 10 16 0.00 0.00
10:55 am 10:55 Sunny 74 23.6 41 5 30 30 SSW 20 31 30.06 1018 10 16 0.00 0.00
11:15 am 11:15 Sunny 74 23.6 43 5.9 32 32 SSW 15 24 30.06 1018 10 16 0.00 0.00
11:35 am 11:35 Sunny 74 23.6 42 5.8 32 32 SSW 17 28 30.06 1018 10 16 0.00 0.00
11:55 am 11:55 Sunny 75 23.8 43 6.1 32 32 SW 21 33 30.06 1018 10 16 0.00 0.00
12:15 pm 12:15 Sunny 77 25.1 45 7.1 32 32 SSW 18 30 30.06 1018 10 16 0.00 0.00
12:35 pm 12:35 Partly Cloudy 77 25.1 44 6.6 31 31 SSW 21 33 30.06 1018 10 16 0.00 0.00
12:55 pm 12:55 Mostly Cloudy 77 25.1 44 6.4 30 30 SSW 22 35 30.06 1018 10 16 0.00 0.00
1:15 pm 13:15 Mostly Cloudy 77 25.1 43 6.2 30 30 SSW 20 31 30.06 1018 10 16 0.00 0.00
1:35 pm 13:35 Partly Cloudy 77 25.1 42 5.7 29 29 SSW 17 28 30.03 1017 10 16 0.00 0.00
1:55 pm 13:55 Sunny 80 26.4 42 5.8 27 27 SSW 18 30 30.03 1017 10 16 0.00 0.00
2:15 pm 14:15 Sunny 78 25.6 40 4.5 26 26 SSW 17 28 30.00 1016 10 16 0.00 0.00
2:35 pm 14:35 Sunny 77 25.1 39 3.8 25 25 SSW 17 28 30.00 1016 10 16 0.00 0.00
2:55 pm 14:55 Sunny 78 25.5 38 3.4 24 24 SSW 18 30 30.00 1016 10 16 0.00 0.00
3:15 pm 15:15 Sunny 80 26.5 37 2.9 22 22 SSW 22 35 30.00 1016 10 16 0.00 0.00
3:35 pm 15:35 Sunny 80 26.5 35 1.9 20 20 S 17 28 30.00 1016 10 16 0.00 0.00
3:55 pm 15:55 Sunny 78 25.4 32 0.2 19 19 S 21 33 29.97 1015 10 16 0.00 0.00
4:15 pm 16:15 Sunny 77 25.1 33 0.7 20 20 SSW 16 26 29.97 1015 10 16 0.00 0.00
4:35 pm 16:35 Sunny 77 25.1 34 1.2 21 21 SSW 15 24 29.97 1015 10 16 0.00 0.00
4:55 pm 16:55 Sunny 77 25.1 33 0.8 20 20 SSW 20 31 29.97 1015 10 16 0.00 0.00
5:15 pm 17:15 Sunny 77 25.1 32 -0.1 19 19 SSW 15 24 29.97 1015 10 16 0.00 0.00
5:35 pm 17:35 Sunny 78 25.6 32 -0.2 18 18 SSW 15 24 29.97 1015 10 16 0.00 0.00
5:55 pm 17:55 Sunny 77 25.1 28 -2.4 16 16 SSW 20 31 30.00 1016 10 16 0.00 0.00
6:15 pm 18:15 Sunny 77 25.1 30 -1.2 18 18 SSW 13 20 30.00 1016 10 16 0.00 0.00
6:35 pm 18:35 Sunny 77 25.1 30 -1 18 18 SSW 15 24 30.00 1016 10 16 0.00 0.00
6:55 pm 18:55 Sunny 77 24.8 29 -1.9 17 17 SSW 12 19 30.03 1017 10 16 0.00 0.00
7:15 pm 19:15 Sunny 76 24.2 27 -2.6 17 17 SSW 10 17 30.03 1017 10 16 0.00 0.00
7:35 pm 19:35 Sunny 74 23.6 32 0.1 21 21 SSW 6 9 30.03 1017 10 16 0.00 0.00
7:55 pm 19:55 Sunny 74 23.5 36 2.2 25 25 SW 5 7 30.03 1017 10 16 0.00 0.00
8:15 pm 20:15 Clear 70 21.1 33 0.7 26 26 SSW 5 7 30.03 1017 10 16 0.00 0.00
8:35 pm 20:35 Clear 69 20.8 41 5 36 36 NNW 9 15 30.03 1017 10 16 0.00 0.00
8:55 pm 20:55 Clear 69 20.8 42 5.5 37 37 NNE 5 7 30.03 1017 10 16 0.00 0.00
9:15 pm 21:15 Clear 65 18.6 44 6.9 47 47 ENE 6 9 30.03 1017 10 16 0.00 0.00
9:35 pm 21:35 Clear 63 17.4 45 7.1 51 51 ENE 3 6 30.03 1017 10 16 0.00 0.00
9:55 pm 21:55 Clear 60 15.5 46 7.8 60 60 Calm 30.06 1018 10 16 0.00 0.00
10:15 pm 22:15 Clear 58 14.3 47 8.3 67 67 Calm 30.06 1018 10 16 0.00 0.00
10:35 pm 22:35 Clear 57 13.8 47 8.5 71 71 Calm 30.06 1018 10 16 0.00 0.00
10:55 pm 22:55 Clear 57 13.8 48 8.8 72 72 Calm 30.06 1018 10 16 0.00 0.00
11:15 pm 23:15 Clear 57 13.7 49 9.6 76 76 SSW 5 7 30.06 1018 10 16 0.00 0.00
11:35 pm 23:35 Clear 60 15.3 45 7.4 60 60 SSW 7 11 30.06 1018 10 16 0.00 0.00
11:55 pm 23:55 Clear 62 16.9 41 5.1 46 46 SSW 7 11 30.03 1017 10 16 0.00 0.00

Powered by AerisWeather